Погода в Голованевске

Украина / Кировоградская область     48°21′40″N   30°23′51″E
темп.,
°C
ветер,
м/с
пор.,
м/с
влажн.,
%
обл.,
%
осадки,
мм/ч
давл.,
гПа
погр.,
м
19 мая, ср
ср1900:00+10з229220 0.0 99926
03:00+11ююз2296100 0.3 99965
06:00+11ююз229796 0.7 100098
09:00+13ююз238874 0.8 1001468
12:00+14зсз888597 2.4 1002706
15:00+12зсз81289100 2.6 1005931
18:00+12зсз81487100 0.3 1007889
21:00+11зсз61385100 0.6 1008769
20 мая, чт
чт2000:00+11з41090100 0.0 1009298
03:00+9з499666 0.0 1009206
06:00+9зсз369537 0.0 1009141
09:00+14сз237091 0.0 1010482
12:00+17юз3358100 0.0 10101345
15:00+17ююз5463100 0.3 10101271
18:00+14ююз5681100 0.3 1011428
21:00+11ссз1192100 1.3 101129
21 мая, пт
пт2100:00+12с238999 0.0 101275
03:00+11всв1189100 0.0 101310
06:00+11св2391100 0.1 101397
09:00+12св2494100 1.0 1014182
12:00+12ссв3594100 2.2 1014221
15:00+15ссв4577100 2.2 1014491
18:00+16ссв4678100 0.1 1014479
21:00+13с51088100 0.3 1015276
22 мая, сб
сб2200:00+12ссв5118874 0.0 1016268
03:00+11с4992100 0.0 1015187
06:00+10с4894100 0.0 1016176
09:00+15ссв5775100 0.0 1015451
12:00+19св4559100 0.0 10161177
15:00+22св445343 0.0 10141575
18:00+21ссв335546 0.0 10131458
21:00+16ссв34785 0.0 101342
23 мая, вс
вс2300:00+14св228498 0.0 101313
03:00+13св11880 0.0 101210
06:00+13ссз228868 0.0 101123
09:00+19сз2369100 0.0 1011439
12:00+22сз33516 0.0 10111290
15:00+24сз3349100 0.0 10101731
18:00+23с1152100 0.0 10091489
21:00+18всв2266100 0.0 101011